Torrington, WY

6:59 PM MDT on August 16, 2017 (GMT -0600)
Torrington Municipal

Weather History for KTOR - March, 2012

Change the Weather History Date:

Tuesday, March 27, 2012

  Actual Average Record
Temperature  
Mean Temperature 55 °F 41 °F  
Max Temperature 68 °F 55 °F 73 °F (2015)
Min Temperature 41 °F 27 °F 9 °F (2009)
Degree Days  
Heating Degree Days 10 24  
Month to date heating degree days 478 746  
Since 1 July heating degree days 5216 5590  
Cooling Degree Days 0 0  
Month to date cooling degree days 0 0  
Year to date cooling degree days 0 0  
Growing Degree Days 4 (Base 50)    
Moisture  
Dew Point 17 °F    
Average Humidity 27    
Maximum Humidity 39    
Minimum Humidity 14    
Precipitation  
Precipitation 0.00 in 0.04 in 0.28 in (2017)
Month to date precipitation 0.00 0.60  
Year to date precipitation 0.72 1.20  
Sea Level Pressure  
Sea Level Pressure 29.85 in    
Wind  
Wind Speed 17 mph (West)    
Max Wind Speed 35 mph    
Max Gust Speed 45 mph    
Visibility 10 miles    
Events      
T = Trace of Precipitation, MM = Missing Value Source: NWS Daily Summary

Daily Weather History Graph

Daily Weather History Graph

Search for Another Location

Airport or City:

Trip Planner

Search our weather history database for the weather conditions in past years. The results will help you decide how hot, cold, wet, or windy it might be!

Date:

Astronomy

Mar. 27, 2012 Rise Set
Actual Time 6:46 AM MDT 7:17 PM MDT
Civil Twilight 6:18 AM MDT 7:45 PM MDT
Nautical Twilight 5:45 AM MDT 8:18 PM MDT
Astronomical Twilight 5:11 AM MDT 8:52 PM MDT
Moon 9:14 AM MDT (3/27) No Moon Set
Length of Visible Light 13h 26m
Length of Day
12h 30m
Waxing Crescent, 22% of the Moon is Illuminated
Mar 27
Waxing Crescent
Mar 30
First Quarter
Apr 6
Full
Apr 13
Last Quarter
Apr 21
New

Hourly Weather History & Observations

Time (MDT) Temp. Windchill Dew Point Humidity Pressure Visibility Wind Dir Wind Speed Gust Speed Precip Events Conditions
12:53 AM 48.9 °F - 16.0 °F 27% 29.66 in 10.0 mi West 21.9 mph 36.8 mph N/A   Clear
1:53 AM 48.9 °F - 16.0 °F 27% 29.69 in 10.0 mi West 20.7 mph 29.9 mph N/A   Clear
2:53 AM 48.9 °F - 16.0 °F 27% 29.70 in 10.0 mi West 32.2 mph 43.7 mph N/A   Clear
3:53 AM 46.9 °F - 18.0 °F 32% 29.74 in 10.0 mi West 15.0 mph 27.6 mph N/A   Clear
4:53 AM 46.9 °F - 17.1 °F 30% 29.81 in 10.0 mi NW 11.5 mph 19.6 mph N/A   Clear
5:53 AM 43.0 °F 36.8 °F 18.0 °F 37% 29.81 in 10.0 mi WSW 11.5 mph - N/A   Clear
6:53 AM 42.1 °F 33.9 °F 19.0 °F 40% 29.86 in 10.0 mi WSW 17.3 mph 25.3 mph N/A   Clear
7:53 AM 44.1 °F 38.1 °F 19.9 °F 38% 29.93 in 10.0 mi WSW 11.5 mph 20.7 mph N/A   Clear
8:53 AM 50.0 °F - 19.9 °F 31% 29.92 in 10.0 mi West 21.9 mph 35.7 mph N/A   Clear
9:53 AM 54.0 °F - 19.0 °F 25% 29.91 in 10.0 mi West 31.1 mph 41.4 mph N/A   Clear
10:53 AM 57.0 °F - 19.0 °F 23% 29.91 in 10.0 mi West 29.9 mph 39.1 mph N/A   Clear
11:53 AM 60.1 °F - 18.0 °F 20% 29.89 in 10.0 mi West 31.1 mph 41.4 mph N/A   Clear
12:53 PM 63.0 °F - 17.1 °F 17% 29.89 in 10.0 mi West 21.9 mph 34.5 mph N/A   Clear
1:53 PM 64.0 °F - 16.0 °F 16% 29.87 in 10.0 mi West 19.6 mph 34.5 mph N/A   Clear
2:53 PM 64.9 °F - 15.1 °F 15% 29.85 in 10.0 mi West 12.7 mph 21.9 mph N/A   Clear
3:53 PM 66.0 °F - 15.1 °F 14% 29.84 in 10.0 mi West 15.0 mph 25.3 mph N/A   Clear
4:53 PM 66.0 °F - 15.1 °F 14% 29.84 in 10.0 mi West 23.0 mph 31.1 mph N/A   Clear
5:53 PM 64.0 °F - 15.1 °F 15% 29.86 in 10.0 mi WNW 15.0 mph - N/A   Clear
6:53 PM 62.1 °F - 15.1 °F 16% 29.88 in 10.0 mi WNW 11.5 mph - N/A   Clear
7:53 PM 61.0 °F - 15.1 °F 17% 29.89 in 10.0 mi NNW 10.4 mph - N/A   Clear
8:53 PM 55.0 °F - 17.1 °F 23% 29.90 in 10.0 mi NNE 11.5 mph - N/A   Clear
9:53 PM 53.1 °F - 19.0 °F 26% 29.94 in 10.0 mi SE 8.1 mph - N/A   Clear
10:53 PM 52.0 °F - 18.0 °F 26% 29.93 in 10.0 mi ESE 3.5 mph - N/A   Clear
11:53 PM 48.0 °F - 18.0 °F 30% 29.94 in 10.0 mi ESE 4.6 mph - N/A   Clear